Location: Ladrillo (historical)
(32.8195°N, 117.2231°W)
Time: 11:51:02
(UTC+00:00)

Vanguard 3 - Pass Details

Date: 08 March 2021
Orbit: 508 x 3262 km, 33.3° (Epoch: 19 April)

Event Time Altitude Azimuth Distance (km) Brightness Sun altitude
Rises 19:03:51 0° 214° (SW) 6,064 11.9 50.3°
Reaches altitude 10° 19:07:43 10° 208° (SSW) 5,363 11.8 50.6°
Maximum altitude 19:23:42 45° 142° (SE) 3,957 12.5 51.7°
Drops below altitude 10° 19:41:30 10° 79° (ENE) 5,978 11.7 52.4°
Sets 19:46:03 0° 73° (ENE) 6,790 11.8 52.5°
